Terminal Aerodrome Forecast
Issued by NWS

Home | Current Version | Previous Version | Text Only | Print | Product List | Glossary On
Versions: 1 2 3 4 5 6 7 8 9 10 11 12 13 14 15 16 17
000
FTUS45 KFGZ 280531
TAFGCN
TAF
KGCN 280531Z 2806/2906 VRB03KT P6SM FEW150
     FM281800 25009G16KT P6SM FEW090=

USA.gov is the U.S. government's official web portal to all federal, state and local government web resources and services.